Temp
14 15 15 15 15 15 15 14 14 14 13 13 13 12 12 12 12 11 11 11 11 11 11 11 11 12 12 12 12 12 12 12 12 12 12 12 12 12 12 12 12 12
14 14 14 15 15 15 14 14 14 14 13 13 12 12 12 12 11 11 11 11 11 11 11 11 11 11 12 12 12 12 12 12 12 12 12 12 12 12 12 12 12 12
14 14 14 15 15 15 14 14 14 14 13 12 12 12 12 11 11 11 11 11 11 11 10 11 11 11 11 12 12 12 12 12 12 12 11 12 12 12 12 12 12 12
14 13 14 14 14 14 14 14 14 13 12 12 12 12 12 11 12 12 12 11 11 11 10 10 10 11 11 11 11 12 12 12 11 11 11 12 12 12 12 12 12 12
13 13 13 14 14 14 14 13 13 13 12 12 12 12 12 12 12 12 12 12 11 11 11 10 10 11 11 11 11 12 11 11 11 11 11 12 12 12 12 12 12 12
13 13 13 13 14 14 13 13 13 13 12 12 12 12 12 12 12 12 12 12 12 11 11 11 10 10 11 11 11 12 11 11 11 11 11 12 12 12 12 12 12 12
13 13 13 13 13 13 13 13 13 13 12 12 12 12 12 12 12 12 12 12 12 11 11 11 10 10 10 10 11 11 11 11 11 11 11 12 12 12 12 12 12 12
12 12 13 13 13 13 13 13 13 12 12 12 12 12 12 12 12 12 12 11 11 11 11 11 10 10 10 10 11 11 11 11 11 11 11 12 12 12 12 12 12 12
12 12 12 12 12 12 13 13 13 12 12 12 12 12 12 11 11 11 11 11 11 11 11 11 11 10 11 11 11 11 11 11 11 11 11 12 12 12 12 12 12 12
12 12 12 12 12 12 13 13 13 12 12 12 12 12 11 11 11 10 10 10 11 11 11 11 11 11 11 11 11 11 12 12 11 11 12 12 12 12 12 12 12 12
12 12 12 12 11 11 12 12 12 12 12 12 12 12 11 11 10 10 10 10 10 11 11 11 11 11 11 11 11 11 12 12 11 11 12 12 12 12 12 12 12 12
12 12 11 12 11 11 12 12 12 11 12 12 12 11 11 11 11 11 10 10 10 10 11 11 11 11 11 10 11 11 11 11 11 11 11 11 12 12 12 12 12 12
12 11 11 11 11 11 11 11 11 11 11 11 11 11 11 11 11 11 11 10 11 10 11 11 11 11 11 10 10 11 11 11 11 11 11 11 12 12 12 12 12 12
12 11 11 11 11 11 12 11 11 11 11 11 11 11 11 11 11 11 11 11 11 11 11 11 11 11 11 10 10 11 11 11 11 11 11 11 11 12 12 12 12 12
12 11 11 11 11 11 11 11 11 11 10 10 11 11 11 11 11 11 11 11 11 11 11 11 11 11 11 11 11 11 11 11 11 11 11 11 11 12 12 12 12 12
11 11 11 11 11 10 10 11 11 11 10 10 10 11 11 11 11 11 11 11 11 11 11 11 11 11 11 11 11 11 11 11 11 11 11 11 12 12 12 12 12 12
10 10 10 10 10 10 10 10 11 11 10 10 10 10 10 11 11 11 11 11 11 11 11 11 11 11 11 11 11 11 11 11 11 11 11 11 11 12 12 12 12 12
10 10 10 10 10 10 10 10 10 10 10 10 10 10 10 10 10 11 11 11 11 11 11 11 11 11 11 11 11 11 11 11 11 11 11 11 11 11 11 12 12 12
9 9 9 9 9 9 10 10 10 10 10 10 10 10 10 10 10 10 10 11 11 11 11 11 11 11 11 11 11 11 11 11 11 11 11 11 11 11 11 11 11 11
9 9 9 9 8 9 9 9 9 9 9 10 10 10 10 10 10 10 10 10 10 10 11 11 11 11 11 11 11 11 11 11 11 11 11 11 11 11 11 11 11 11
9 9 9 9 9 9 9 9 9 9 9 9 9 10 9 9 10 10 10 10 10 10 10 10 10 11 10 10 10 11 11 11 11 11 11 11 11 11 10 10 10 11
9 9 9 9 9 9 9 9 9 9 9 9 9 9 9 9 9 9 9 9 10 10 10 10 10 10 10 10 10 10 10 10 10 11 11 11 10 10 10 10 10 10
10 10 10 10 10 10 9 9 9 9 9 9 9 9 9 9 9 9 9 9 9 9 9 10 10 10 10 10 10 10 10 10 10 10 10 10 10 10 10 10 10 10
10 10 10 10 10 10 10 10 10 10 9 9 9 9 9 9 9 9 9 9 9 9 9 9 9 10 10 10 10 10 10 10 10 10 10 10 10 10 10 9 9 9
9 9 9 9 9 9 10 10 10 10 10 9 9 9 9 9 9 9 9 9 9 9 9 9 9 10 10 10 9 10 10 10 10 9 9 9 9 9 9 9 9 9
8 8 8 8 8 8 9 9 9 9 10 9 9 9 9 9 9 9 9 9 9 9 9 9 9 10 10 10 10 9 9 9 9 9 9 9 9 9 9 9 9 9
Height
1531 1532 1533 1534 1535 1536 1536 1537 1537 1537 1537 1537 1537 1537 1536 1536 1537 1537 1538 1538 1539 1540 1540 1541 1541 1541 1542 1542 1543 1544 1545 1545 1546 1546 1547 1547 1547 1546 1547 1547 1548 1550
1530 1532 1533 1534 1535 1536 1537 1537 1537 1537 1537 1536 1536 1537 1537 1536 1537 1537 1538 1539 1539 1540 1540 1541 1541 1541 1542 1542 1543 1544 1545 1545 1545 1546 1546 1547 1547 1547 1546 1547 1547 1549
1529 1532 1533 1534 1535 1536 1536 1537 1537 1537 1536 1536 1536 1537 1537 1537 1537 1537 1537 1538 1539 1540 1540 1541 1541 1541 1542 1543 1543 1544 1545 1545 1546 1546 1546 1547 1547 1547 1547 1547 1548 1549
1529 1531 1533 1534 1535 1536 1536 1536 1537 1537 1537 1537 1537 1537 1537 1537 1537 1537 1537 1538 1539 1539 1540 1540 1541 1541 1542 1543 1544 1544 1545 1546 1546 1546 1547 1548 1548 1548 1548 1549 1549 1549
1528 1531 1533 1534 1534 1535 1536 1536 1537 1537 1537 1538 1538 1538 1538 1538 1537 1537 1537 1538 1538 1539 1540 1540 1541 1542 1542 1543 1544 1545 1545 1546 1546 1547 1547 1548 1549 1549 1550 1550 1550 1551
1528 1531 1532 1533 1534 1534 1535 1536 1537 1538 1538 1539 1539 1539 1538 1538 1538 1538 1538 1538 1538 1539 1540 1540 1541 1541 1542 1543 1544 1545 1545 1546 1547 1547 1548 1548 1549 1550 1550 1551 1551 1552
1528 1530 1531 1532 1533 1534 1535 1536 1537 1538 1538 1539 1539 1539 1539 1539 1538 1538 1538 1538 1538 1539 1539 1540 1540 1541 1542 1543 1544 1545 1546 1546 1547 1548 1548 1549 1549 1550 1551 1552 1552 1553
1527 1529 1530 1532 1533 1534 1535 1536 1537 1538 1538 1539 1539 1539 1539 1539 1539 1539 1539 1539 1539 1539 1539 1540 1540 1541 1542 1542 1543 1545 1546 1547 1548 1548 1549 1550 1550 1551 1551 1552 1553 1554
1524 1527 1529 1532 1533 1534 1535 1536 1537 1537 1538 1538 1538 1539 1539 1539 1540 1540 1539 1539 1539 1539 1539 1539 1540 1541 1541 1542 1544 1545 1546 1547 1548 1549 1550 1550 1551 1551 1551 1552 1553 1555
1526 1528 1531 1532 1534 1535 1536 1537 1538 1537 1537 1538 1538 1538 1539 1539 1540 1540 1540 1540 1540 1539 1539 1540 1540 1541 1542 1543 1544 1545 1546 1547 1548 1549 1550 1550 1551 1551 1551 1552 1553 1555
1528 1530 1532 1532 1534 1535 1536 1537 1538 1538 1538 1538 1538 1538 1538 1539 1540 1540 1541 1541 1541 1540 1540 1540 1541 1542 1543 1544 1545 1545 1546 1547 1548 1549 1550 1551 1551 1552 1552 1553 1554 1555
1527 1530 1530 1532 1535 1536 1536 1537 1538 1538 1538 1538 1539 1539 1539 1539 1540 1540 1541 1541 1541 1542 1542 1542 1542 1543 1544 1545 1545 1546 1547 1547 1548 1549 1550 1551 1552 1553 1554 1554 1555 1556
1527 1528 1530 1532 1535 1535 1535 1536 1537 1538 1538 1539 1539 1540 1540 1540 1540 1541 1541 1541 1542 1542 1543 1543 1544 1544 1545 1546 1546 1547 1547 1548 1549 1550 1551 1552 1553 1554 1554 1555 1556 1556
1525 1527 1530 1532 1533 1533 1534 1535 1536 1537 1539 1540 1540 1540 1541 1541 1541 1541 1541 1542 1542 1543 1543 1544 1544 1545 1546 1546 1547 1547 1548 1549 1549 1550 1551 1552 1553 1554 1555 1555 1556 1556
1525 1527 1529 1530 1531 1531 1532 1534 1535 1536 1538 1540 1541 1540 1541 1541 1542 1542 1542 1542 1542 1543 1543 1544 1545 1546 1546 1547 1547 1547 1548 1549 1549 1550 1551 1551 1552 1553 1554 1555 1556 1556
1525 1526 1528 1529 1529 1531 1533 1534 1535 1535 1538 1540 1540 1540 1541 1541 1542 1542 1542 1542 1542 1543 1543 1544 1545 1546 1546 1547 1548 1548 1548 1549 1549 1550 1550 1551 1552 1552 1553 1554 1555 1556
1524 1526 1527 1529 1530 1532 1534 1535 1534 1535 1537 1538 1539 1539 1540 1540 1541 1542 1542 1542 1542 1543 1543 1543 1544 1545 1546 1547 1547 1548 1548 1549 1549 1550 1550 1550 1550 1551 1552 1553 1554 1554
1525 1526 1527 1529 1530 1532 1533 1534 1534 1536 1537 1537 1537 1538 1538 1539 1540 1540 1541 1542 1542 1543 1543 1543 1543 1544 1545 1545 1546 1546 1547 1548 1548 1549 1549 1549 1549 1550 1550 1551 1551 1552
1525 1526 1527 1528 1530 1530 1531 1533 1535 1536 1536 1536 1535 1536 1536 1538 1539 1539 1540 1541 1542 1542 1543 1543 1543 1543 1544 1544 1545 1545 1546 1546 1547 1547 1548 1548 1548 1549 1549 1549 1550 1550
1526 1527 1528 1529 1529 1530 1531 1532 1533 1534 1534 1533 1533 1534 1535 1537 1538 1538 1539 1540 1541 1541 1542 1542 1542 1543 1543 1543 1544 1544 1544 1544 1544 1545 1545 1546 1546 1547 1547 1548 1548 1548
1528 1528 1529 1530 1530 1530 1531 1531 1532 1532 1532 1532 1533 1534 1535 1536 1536 1536 1537 1538 1539 1540 1540 1540 1541 1541 1541 1542 1542 1542 1542 1542 1542 1542 1542 1543 1543 1544 1545 1545 1546 1546
1529 1529 1530 1530 1531 1531 1531 1530 1530 1531 1531 1531 1532 1533 1533 1533 1533 1533 1535 1536 1536 1537 1538 1538 1538 1539 1539 1539 1540 1540 1540 1540 1540 1539 1539 1539 1540 1540 1541 1542 1543 1543
1527 1528 1528 1529 1529 1529 1529 1529 1529 1529 1530 1530 1530 1530 1530 1530 1530 1530 1531 1532 1533 1534 1534 1535 1536 1536 1537 1537 1537 1537 1537 1537 1537 1537 1536 1536 1537 1537 1538 1538 1539 1540
1527 1526 1527 1527 1527 1527 1527 1527 1527 1527 1527 1528 1528 1528 1528 1528 1528 1529 1529 1529 1530 1530 1531 1531 1532 1533 1534 1534 1535 1535 1534 1534 1534 1533 1533 1533 1533 1534 1534 1534 1535 1536
1526 1526 1526 1526 1526 1526 1526 1526 1526 1526 1526 1526 1526 1526 1526 1526 1526 1526 1527 1527 1527 1527 1527 1527 1527 1528 1529 1530 1531 1532 1531 1531 1531 1530 1529 1529 1529 1529 1530 1530 1531 1532
1526 1526 1526 1525 1525 1525 1525 1525 1525 1524 1524 1524 1524 1524 1524 1524 1524 1523 1523 1524 1524 1523 1523 1523 1523 1524 1524 1525 1526 1527 1527 1528 1527 1526 1526 1526 1525 1525 1526 1527 1527 1528
Wind_Speed
20 17 14 14 14 15 15 13 9 7 6 5 3 2 2 2 4 8 10 10 9 8 8 8 8 6 4 4 6 6 5 6 7 7 7 8 9 9 9 10 10 12
21 17 14 15 16 16 15 12 8 6 5 5 5 4 3 1 3 7 9 9 9 8 9 10 9 7 5 6 7 7 6 6 7 7 8 9 11 11 11 10 10 12
21 17 15 15 16 17 15 11 8 6 6 7 7 6 5 4 4 7 7 6 8 11 12 10 9 7 5 7 8 8 8 8 8 9 10 13 14 13 12 11 11 12
20 17 15 14 15 17 14 10 8 8 9 9 9 8 7 6 6 8 8 6 8 13 15 12 10 8 6 7 9 10 10 10 11 11 13 15 15 13 13 13 13 13
20 19 16 14 15 16 13 10 8 8 9 9 9 9 8 7 6 8 9 8 10 14 16 14 12 9 7 9 10 11 12 12 13 14 14 14 14 13 13 12 13 14
21 19 17 15 16 15 12 10 8 8 8 9 9 10 9 6 7 9 10 11 12 14 15 13 11 9 10 11 12 12 13 14 16 16 15 14 13 13 12 12 13 14
21 19 16 16 16 15 12 10 8 8 9 9 9 9 8 7 9 9 10 11 12 13 13 12 10 9 11 13 13 12 13 14 17 18 17 15 15 14 13 13 14 14
21 19 17 16 15 14 12 11 9 8 9 8 8 8 7 8 8 9 10 10 10 12 11 11 9 8 12 14 14 13 13 13 17 19 18 17 17 16 16 16 16 16
18 18 18 16 15 13 13 12 10 8 8 8 7 8 8 7 7 8 9 9 10 11 11 10 9 10 12 13 13 13 14 14 17 18 19 18 17 18 19 19 20 19
16 16 17 16 15 15 14 12 10 8 8 8 8 9 9 7 6 7 8 7 7 9 12 11 11 12 12 13 13 13 14 16 17 18 17 16 16 17 19 20 21 21
16 14 15 17 16 14 14 12 10 8 8 8 9 10 9 8 6 5 6 5 4 5 10 12 12 12 12 14 14 14 15 16 18 18 17 16 17 18 19 19 20 21
15 15 17 18 15 14 14 12 10 8 8 9 10 10 10 9 7 6 7 6 3 3 5 9 10 10 12 15 15 14 16 17 18 18 16 17 18 18 18 19 20 20
15 15 17 17 16 16 15 12 10 8 9 9 11 11 12 11 9 8 8 8 6 4 3 4 4 6 12 17 16 14 15 17 18 17 16 16 17 18 18 19 21 21
15 15 17 18 18 17 15 14 13 10 10 11 12 13 13 11 10 9 10 9 7 6 5 4 2 3 11 18 18 15 16 17 18 18 17 16 16 17 19 20 20 20
15 16 18 19 18 16 15 16 15 12 11 13 13 14 14 12 10 10 11 11 10 8 8 8 6 4 6 14 18 17 17 18 18 19 19 18 17 18 20 21 20 20
14 16 18 18 17 15 15 15 15 14 15 17 16 15 14 13 12 13 13 13 12 11 10 11 11 8 6 8 11 14 15 17 19 21 21 20 19 19 20 22 22 20
11 12 13 13 12 12 14 15 15 16 18 19 17 15 14 13 12 14 15 15 14 14 13 13 13 13 11 9 8 9 11 13 16 20 23 22 21 20 20 21 21 21
10 10 9 8 7 9 11 13 14 17 21 21 17 14 13 13 12 12 14 15 16 16 16 14 13 14 15 14 12 11 12 13 14 17 20 23 24 24 23 23 23 23
12 12 12 10 7 6 6 6 8 12 15 16 16 14 12 12 13 13 13 14 15 16 17 16 15 14 15 17 17 16 15 15 16 16 18 20 22 24 24 25 25 25
17 15 14 13 10 8 7 7 7 7 6 7 10 13 12 13 15 15 15 16 16 16 17 18 18 17 16 17 19 20 20 20 20 20 21 22 22 23 24 25 25 26
17 16 15 14 12 10 9 8 7 7 6 6 6 8 9 10 11 13 14 17 19 19 20 20 20 20 19 18 19 21 22 23 23 24 25 26 26 26 26 25 26 27
13 12 11 11 11 10 9 8 8 7 7 7 7 7 7 7 7 7 8 11 14 17 20 22 22 23 23 23 23 23 23 24 25 27 28 29 29 29 29 28 29 30
7 6 6 5 6 6 6 6 6 5 5 6 6 6 7 7 8 8 8 8 9 11 14 17 18 20 22 24 26 27 27 27 27 28 30 30 31 32 31 32 32 33
5 4 5 5 6 7 7 7 7 7 7 7 7 7 8 8 9 10 10 11 11 11 12 13 14 15 16 19 22 25 27 28 29 30 31 31 32 33 33 34 34 34
5 6 7 8 8 9 10 12 12 13 13 12 12 13 13 13 13 14 14 14 14 14 15 15 17 17 16 17 18 19 22 24 25 28 29 30 31 32 33 34 35 36
10 10 11 11 12 13 13 14 16 17 18 18 18 18 19 19 19 20 20 19 19 19 19 19 20 21 20 20 19 20 21 22 24 25 26 28 29 30 31 33 34 36
Wind_Direction
198 195 191 187 190 190 183 180 179 177 189 204 212 214 208 210 208 196 189 183 182 191 198 204 217 216 190 179 183 181 174 171 180 183 173 161 159 166 170 174 188 192
198 198 196 192 192 188 182 179 180 183 200 220 233 244 245 245 207 193 188 178 177 189 196 199 210 206 162 153 168 170 167 171 176 169 154 148 149 148 146 151 167 179
197 196 196 194 191 188 184 182 181 194 216 224 235 249 253 250 224 203 196 180 170 180 190 195 201 195 158 146 155 157 159 165 165 157 150 151 149 142 136 134 142 156
192 194 201 200 196 193 190 184 184 202 218 225 234 241 249 258 234 203 195 188 177 179 186 193 198 199 178 151 151 152 154 158 158 158 158 158 154 147 138 132 131 139
189 195 205 204 199 197 192 185 192 210 221 228 235 241 253 257 224 192 181 175 175 180 188 196 200 200 182 160 157 155 153 157 161 164 165 161 158 154 146 139 134 134
188 196 204 202 197 196 192 190 200 219 228 234 241 249 254 233 187 172 168 164 168 178 187 197 202 193 173 169 169 160 158 163 166 170 170 165 161 159 155 151 143 134
191 196 199 195 194 195 194 195 204 222 232 238 246 250 236 193 168 163 165 162 164 175 185 196 203 188 173 177 178 170 168 170 173 177 176 170 167 167 165 161 154 142
195 196 196 194 194 195 197 199 204 217 226 233 240 231 199 173 166 167 170 168 168 173 181 189 195 183 174 179 182 181 179 177 179 183 182 177 176 178 178 174 167 159
191 189 190 193 199 203 202 201 205 212 215 217 216 194 167 151 151 155 156 157 163 173 177 178 177 173 171 175 179 183 182 178 181 187 187 185 184 184 186 186 183 178
196 190 188 192 202 208 208 206 208 211 206 202 194 174 154 136 133 140 140 134 143 166 173 170 169 168 167 169 172 176 178 175 178 186 190 189 185 180 179 184 188 189
209 204 200 201 202 203 206 208 209 212 208 198 186 170 156 149 149 154 158 147 126 157 171 170 171 172 168 168 170 171 172 171 173 179 183 182 180 176 170 172 180 185
211 206 207 210 207 198 199 203 208 219 217 197 182 174 172 172 175 180 184 185 175 167 170 167 174 182 175 174 178 175 171 169 171 177 180 179 180 179 174 172 174 177
215 210 211 212 208 202 201 200 206 225 223 196 180 182 186 187 191 192 191 194 201 212 199 166 174 192 185 185 188 184 179 177 178 183 188 187 187 188 183 179 178 181
217 213 210 206 204 205 205 199 196 205 213 203 190 188 192 192 194 198 196 197 208 222 222 210 213 210 192 191 194 190 188 190 190 194 199 200 199 198 194 190 187 189
215 211 207 204 202 201 202 200 192 185 198 208 203 196 197 196 197 201 199 201 211 221 226 227 235 249 208 197 199 200 198 200 202 205 208 209 209 206 203 202 200 199
208 208 205 203 200 194 196 203 197 188 198 209 208 202 201 201 205 206 202 204 210 214 222 228 231 243 248 219 211 212 211 210 210 212 214 215 217 216 213 211 211 211
188 195 200 202 202 200 204 208 206 202 205 205 202 202 203 203 209 211 208 210 213 214 219 227 230 235 242 242 237 230 227 224 218 217 218 219 223 227 227 224 223 224
153 159 165 170 182 196 207 212 212 212 212 206 198 195 201 208 214 216 214 215 218 219 220 224 230 234 235 239 243 243 244 244 236 228 225 225 227 230 233 236 236 237
123 126 122 119 126 147 175 192 200 206 211 211 204 199 202 209 215 220 222 224 226 226 227 229 233 238 237 237 239 241 245 248 247 244 239 235 235 235 236 239 241 242
112 114 113 111 110 117 140 154 159 170 182 193 201 210 217 217 218 223 226 230 234 234 235 236 238 242 245 241 238 238 242 246 248 248 246 245 245 244 244 245 246 247
112 115 117 118 117 120 133 143 147 157 161 158 173 202 220 222 225 231 235 239 242 241 241 241 241 243 247 248 245 242 240 243 247 247 247 247 248 249 249 249 251 251
122 124 127 127 129 130 131 134 139 147 160 169 176 189 198 200 205 217 233 245 249 250 250 248 246 245 247 248 251 250 247 246 246 246 247 247 247 249 249 249 250 250
145 149 154 157 161 163 160 158 157 158 169 181 193 204 207 210 214 213 217 227 237 246 253 255 253 250 249 250 250 252 252 250 249 249 249 248 248 249 249 249 250 251
192 208 219 225 227 227 228 228 224 225 230 230 233 233 228 229 233 231 230 232 232 235 243 252 254 253 255 256 254 253 254 254 253 254 254 253 253 252 252 252 253 256
264 264 264 262 258 253 250 248 247 246 248 248 249 248 244 243 244 242 240 239 240 242 246 250 251 249 251 256 257 259 260 260 258 256 256 255 255 255 255 255 256 258
295 291 289 285 279 273 267 262 259 257 256 256 256 256 254 253 252 251 249 245 244 246 248 250 253 252 248 247 250 255 261 265 265 262 260 259 258 257 256 257 257 258